Regional Weather Roundup
Issued by NWS

Home | Current Version | Previous Version | Text Only | Print | Product List | Glossary On
Versions: 1 2 3 4 5 6 7 8 9 10 11 12 13 14 15 16 17 18 19 20 21 22 23 24 25 26 27 28 29 30 31 32 33 34 35 36 37 38 39 40 41 42 43 44 45 46 47 48 49 50
000
ASUS43 KDTX 231501
RWRMI
MICHIGAN HOURLY REGIONAL WEATHER ROUNDUP
NATIONAL WEATHER SERVICE DETROIT/PONTIAC MI
1100 AM EDT WED JUL 23 2014

NOTE: "FAIR" INDICATES FEW OR NO CLOUDS BELOW 12,000 FEET WITH NO
SIGNIFICANT WEATHER AND/OR OBSTRUCTION TO VISIBILITY.

MIZ047>049-052>055-059>063-066>070-074>076-081>083-231600-
SOUTHEAST LOWER MICHIGAN

CITY           SKY/WX    TMP DP  RH WIND       PRES   REMARKS
ADRIAN         CLOUDY    68  60  75 N9        30.03R
ALMA           PTSUNNY   67  56  68 N10G18    30.08F
ANN ARBOR      CLOUDY    69  58  67 N12G18    30.03R
BAD AXE        CLOUDY    63  54  70 N14G22    30.06R
CARO           CLOUDY    65  58  77 N12       30.05S
DETROIT CITY   CLOUDY    66  59  78 N10       30.01R
DETROIT        CLOUDY    69  60  73 N10       30.01R
FLINT          CLOUDY    68  56  65 N14       30.05R
GROSSE ILE     CLOUDY    70  63  78 N8        29.99R
HILLSDALE      CLOUDY    67  62  84 N10       30.05R
HOWELL         CLOUDY    65  57  74 N7        30.05R

CITY           SKY/WX    TMP DP  RH WIND       PRES   REMARKS
JACKSON        CLOUDY    66  57  72 N9G18     30.05R
LAMBERTVILLE   CLOUDY    70  63  78 NW8       30.01R
LANSING        MOSUNNY   67  56  67 N12G20    30.07S
LAPEER         CLOUDY    64  55  72 N7G16     30.05R
MASON          CLOUDY    68  58  69 N10G17    30.06S
MONROE         CLOUDY    70  63  78 N9        29.99R
MT. CLEMENS    CLOUDY    66  58  76 N18G24    30.01R
PONTIAC        PTSUNNY   69  57  65 N14       30.02R
PORT HOPE        N/A     68  58  70 CALM      30.04R
PORT HURON     CLOUDY    64  57  77 N8G18     30.02R
TRI CITIES     PTSUNNY   69  55  60 N15       30.06F
TROY           PTSUNNY   69  59  69 N12G20    30.03R
SAGINAW HB     CLOUDY    66  55  68 N12       30.05F
$$
MIZ043>046-050>051-056>058-064>065-071>073-077>080-231600-
SOUTHWEST LOWER MICHIGAN

CITY           SKY/WX    TMP DP  RH WIND       PRES   REMARKS
BATTLE CREEK   PTSUNNY   70  57  63 N13       30.07S
BENTON HARBOR  PTSUNNY   67  57  70 NE9       30.10R
BIG RAPIDS     CLOUDY    65  53  66 N10G21    30.11S
COLDWATER      CLOUDY    67  60  77 N8        30.06R
FREMONT        CLOUDY    66  56  71 N9        30.11S
HOLLAND        MOSUNNY   71  58  63 VRB7      30.11S
GRAND RAPIDS   PTSUNNY   69  57  65 N9        30.10S
IONIA          PTSUNNY   66  56  68 N7        30.07F
KALAMAZOO      MOSUNNY   69  56  62 N10       30.07S
LUDINGTON      CLOUDY    62  56  81 N13       30.15S
MARSHALL       MOSUNNY   67  57  71 N5        30.06R
MOUNT PLEASANT PTSUNNY   68  56  64 NW9       30.08F
MUSKEGON       PTSUNNY   67  56  67 N12       30.13R
SOUTH HAVEN    PTSUNNY   67  59  75 N8G16     30.10S
$$
MIZ016>042-231600-
NORTHERN LOWER MICHIGAN

CITY           SKY/WX    TMP DP  RH WIND       PRES   REMARKS
ALPENA         CLOUDY    64  54  69 N13       30.09S
BEAVER ISLAND  CLOUDY    58  53  81 N8        30.16F
BELLAIRE       CLOUDY    60  53  78 N7        30.13S
CADILLAC       CLOUDY    60  55  83 N9        30.13R
CHARLEVOIX     CLOUDY    60  54  81 N12G17    30.17S
FRANKFORT      PTSUNNY   62  52  69 N10G23    30.16R
GAYLORD        CLOUDY    58  52  80 VRB3      30.13S
GRAYLING       CLOUDY    62  55  78 N9        30.13R
HARBOR SPRINGS CLOUDY    61  53  76 NW6       30.14R
HOUGHTON LAKE  CLOUDY    63  54  72 N9        30.12R
MANISTEE       PTSUNNY   63  54  72 N10       30.16R
OSCODA         CLOUDY    67  53  59 N15       30.06R
PELLSTON       CLOUDY    61  53  75 N12       30.14R
ROGERS CITY    CLOUDY    60  57  89 NW10      30.12S
TRAVERSE CITY  CLOUDY    61  52  72 N9        30.14R
$$
MIZ007>008-015-231600-
EASTERN UPPER MICHIGAN

CITY           SKY/WX    TMP DP  RH WIND       PRES   REMARKS
KINROSS        PTSUNNY   63  52  67 N14       30.13F
MACKINAC ISLAN CLOUDY    59  53  82 N6        30.13S
NEWBERRY       CLOUDY    59  50  71 N15G22    30.16F
S. S. MARIE    MOSUNNY   62  48  60 N9        30.13S
MUNISING         N/A     57  47  69 NE7       30.22S
$$
MIZ004>006-011>014-085-231600-
CENTRAL UPPER MICHIGAN

CITY           SKY/WX    TMP DP  RH WIND       PRES   REMARKS
MANISTIQUE     PTSUNNY   63  51  64 N18       30.17F
ESCANABA       PTSUNNY   63  48  59 N9G18     30.20S
MENOMINEE      SUNNY     64  48  55 N13G20    30.19F
SAWYER-GWINN   MOSUNNY   61  48  63 NE9G16    30.24R
$$
MIZ001>003-009>011-084-231600-
WESTERN UPPER MICHIGAN

CITY           SKY/WX    TMP DP  RH WIND       PRES   REMARKS
IRON MOUNTAIN  SUNNY     64  48  56 N13       30.22S
HOUGHTON       SUNNY     65  48  54 VRB6      30.23S
COPPER HARBOR    N/A     58  53  84 MISG      30.24R
$$

ABBREVIATIONS USED IN REMARKS
   TC - TEMPERATURE IN CELSIUS
  WCI - WIND CHILL INDEX
   HX - HEAT INDEX
  VSB - VISIBILITY



USA.gov is the U.S. government's official web portal to all federal, state and local government web resources and services.